Wind_Speed
52 53 52 53 55 57 60 60 59 56 55 56 58 56 54 54 54 53 53 53 53 52 51 50 50 49 47 46 45 45 47 50 51 52 52 51 50 49 50 50 50 49 48 47 46 46 46 46 46 47 47 47 47 46 45 44 43 43 41 38 35 32 31 30 30 30 31 31 30 31 31 31 32 32
50 51 51 52 53 55 58 61 62 61 57 54 57 59 58 57 56 55 54 54 54 55 54 53 53 53 51 50 48 47 48 50 51 52 53 52 51 52 52 52 51 50 49 48 48 48 48 48 48 48 48 48 48 47 47 46 45 44 44 44 42 39 37 36 35 34 34 34 33 34 34 34 34 34
49 49 50 51 51 52 55 59 62 65 63 58 55 57 58 59 59 57 56 56 56 56 56 56 55 55 55 54 53 51 51 52 53 53 54 53 53 54 54 53 53 52 51 51 50 50 50 50 49 49 48 48 48 48 48 48 47 46 46 46 46 45 43 42 41 40 39 39 38 37 37 37 37 36
50 49 49 50 51 52 53 56 59 63 66 65 61 58 57 58 60 61 59 58 58 58 57 57 56 56 57 57 56 55 54 55 55 56 56 56 56 56 56 55 55 55 54 53 53 53 53 52 51 50 49 49 49 50 50 50 50 50 49 48 48 48 47 46 45 44 44 43 43 42 41 41 40 40
52 52 51 51 52 53 53 55 57 60 63 65 65 63 60 58 59 61 62 61 61 60 60 59 58 58 58 59 59 58 58 58 58 57 57 57 58 58 58 57 57 57 57 57 56 56 55 54 52 52 51 51 51 51 51 52 51 52 52 51 50 50 49 48 48 48 47 47 46 46 46 45 45 44
53 53 54 53 53 54 55 55 56 58 61 63 65 66 65 62 61 61 62 63 63 63 63 62 62 61 61 62 63 62 62 62 61 60 59 58 57 58 58 58 59 59 60 59 59 58 57 55 55 55 54 53 52 52 52 53 52 52 53 54 54 53 52 51 51 51 51 51 50 49 49 49 49 48
53 54 54 55 55 55 56 56 57 58 60 61 63 65 66 66 65 64 63 64 64 65 66 66 66 65 63 64 65 66 66 66 65 64 63 62 61 61 61 61 61 61 62 61 61 61 60 59 58 58 56 55 54 54 55 56 56 54 53 53 54 54 54 54 54 54 54 54 53 53 52 52 52 52
56 56 56 56 56 56 56 56 58 59 60 61 62 64 65 66 68 68 67 66 66 66 67 68 69 70 69 67 68 69 70 70 70 69 67 66 65 65 66 66 66 65 65 65 65 65 64 62 61 60 59 58 57 58 58 59 59 59 57 55 55 55 55 55 56 56 56 55 55 55 54 54 55 55
60 60 59 58 58 58 57 57 57 59 61 62 63 64 65 66 67 69 69 69 69 68 68 69 70 72 73 73 73 73 73 73 73 73 72 71 70 69 69 70 70 69 68 67 67 67 67 66 64 63 62 61 60 60 61 61 62 62 62 62 60 59 58 58 58 58 58 58 59 59 59 59 59 59
63 63 62 62 61 61 60 59 59 59 60 62 64 65 66 67 67 68 69 70 70 70 71 71 71 72 74 76 77 77 76 75 75 75 75 76 76 75 73 72 72 72 71 69 67 66 67 67 66 65 64 64 63 62 62 62 62 63 64 64 64 63 62 61 61 61 61 62 63 64 65 65 64 64
65 65 65 65 65 65 64 63 62 62 61 62 63 65 67 68 68 69 70 71 71 72 72 72 73 73 73 75 78 79 79 79 78 76 75 76 77 78 79 78 77 76 75 74 73 71 69 69 68 67 66 65 64 63 62 62 62 62 63 63 64 64 64 64 64 65 66 67 69 69 70 70 70 70
68 68 68 68 68 68 68 67 67 66 65 65 65 65 66 68 69 70 71 72 72 73 73 73 74 74 74 74 76 77 78 80 81 80 79 77 76 76 77 79 80 80 79 79 79 79 78 77 76 74 72 70 68 67 66 65 66 67 67 67 67 68 68 69 70 72 73 74 74 74 74 74 74 73
71 71 71 71 72 72 71 70 70 70 70 70 69 69 69 69 69 70 71 72 73 73 74 75 75 75 75 75 75 75 76 77 79 81 82 82 82 79 77 77 78 79 80 81 81 81 82 83 83 82 81 79 77 76 74 74 75 76 77 77 77 77 77 78 78 78 78 77 77 76 76 76 76 76
74 75 75 74 75 75 75 74 74 74 74 73 73 73 73 72 72 71 71 72 73 73 74 75 76 76 77 77 77 76 76 76 76 78 80 83 84 85 83 82 81 80 79 80 80 81 83 83 83 84 83 83 83 82 82 83 83 84 84 84 83 83 82 82 81 81 80 79 79 79 78 79 79 79
76 77 77 77 78 79 79 79 78 78 77 77 76 76 76 76 75 75 75 74 74 74 75 75 76 77 77 78 78 77 77 77 76 76 78 79 82 84 85 86 87 86 84 81 81 82 83 83 83 83 84 84 84 84 84 85 85 86 86 86 85 84 84 84 83 83 82 81 81 81 81 81 81 80
78 78 78 79 81 82 82 82 81 81 81 81 80 79 79 79 79 78 78 78 78 78 77 78 78 78 78 78 79 79 79 78 78 78 78 78 79 80 82 83 85 87 86 85 84 84 84 84 84 85 85 86 85 86 86 86 86 86 86 86 85 85 85 85 85 84 84 83 82 81 81 80 80 80
77 79 79 80 81 82 83 84 84 83 83 84 83 83 83 82 82 82 81 81 82 82 82 81 81 81 80 80 81 81 80 80 80 81 81 81 80 80 80 81 83 84 85 84 83 83 84 84 84 84 85 86 86 86 86 86 87 87 88 88 87 86 86 85 85 85 85 85 84 83 82 82 81 81
75 77 79 80 81 82 83 83 84 85 86 86 86 86 86 86 86 85 85 85 85 86 86 85 85 85 84 83 84 84 83 83 82 82 82 82 82 82 82 82 83 83 84 84 82 82 83 84 83 83 85 86 86 86 86 86 86 87 88 89 89 89 88 88 87 87 87 87 87 87 86 86 85 85
75 77 79 80 82 83 83 83 84 85 87 88 89 88 88 88 89 88 88 89 89 89 89 89 89 89 89 88 88 88 88 86 85 85 84 84 83 84 84 84 84 84 86 86 84 83 84 86 85 84 85 87 87 87 87 86 87 87 88 89 90 90 90 90 90 89 89 88 88 88 88 87 87 86
78 79 80 81 83 83 83 83 84 85 87 88 89 89 89 90 91 91 92 92 92 92 92 92 92 92 92 92 92 92 92 91 90 89 87 87 87 87 86 85 85 86 87 88 86 85 86 88 88 87 88 89 89 88 88 87 87 88 88 88 89 90 90 91 91 90 89 88 88 88 88 88 87 87
79 81 82 83 83 83 83 83 84 85 86 87 87 88 89 90 92 93 94 94 95 95 95 96 96 96 96 96 96 96 95 95 95 94 92 91 91 90 89 88 88 89 89 89 89 87 87 89 89 89 89 91 91 91 90 89 88 88 88 89 89 91 92 92 92 91 90 89 89 89 89 89 88 88
80 82 84 83 83 83 83 84 85 86 86 86 86 87 88 89 91 92 94 96 96 97 98 98 99 99 99 99 99 99 99 98 98 98 97 96 96 95 93 92 92 92 92 92 92 91 90 91 91 91 91 92 93 93 92 91 89 88 89 90 91 92 93 94 94 93 92 91 90 90 90 89 89 88
82 83 84 83 83 83 84 86 87 87 87 86 87 87 88 89 90 91 93 95 96 98 99 100 101 101 102 102 102 102 102 101 101 101 100 100 100 99 98 97 96 95 95 96 96 95 94 94 95 95 95 95 95 95 95 93 92 91 91 92 93 94 95 96 96 95 94 93 91 90 90 90 90 89
83 83 83 83 83 84 85 86 87 88 88 87 88 88 89 89 90 91 93 94 95 96 98 100 102 103 104 104 104 105 105 104 104 104 103 103 102 102 101 101 100 99 99 100 101 99 98 98 98 99 100 100 99 99 98 97 96 95 95 96 96 96 98 100 100 99 98 96 94 93 92 92 92 92
83 84 83 83 84 85 86 86 87 88 88 88 89 90 90 91 91 92 93 94 95 96 97 98 100 102 103 105 106 106 107 107 107 107 107 106 105 104 103 103 103 102 102 104 104 103 102 102 102 102 103 104 104 103 103 102 101 101 101 101 100 100 102 104 104 104 103 101 100 99 98 97 97 97
82 84 84 83 83 85 86 86 87 88 88 88 89 90 91 92 92 93 93 95 96 96 97 97 98 99 101 103 105 106 107 108 109 110 110 109 109 107 106 105 105 105 105 106 106 106 105 105 105 105 106 106 107 107 107 106 105 105 105 104 104 104 105 106 108 107 106 105 104 103 102 101 101 100
80 81 82 81 81 82 83 84 85 86 87 88 89 90 91 91 92 93 93 94 95 96 96 97 98 98 99 101 102 104 105 107 109 110 111 111 112 111 110 108 107 107 107 107 108 108 108 107 108 108 109 109 109 109 109 109 108 107 107 107 106 106 106 108 109 109 108 106 105 104 103 103 102 102
78 78 78 78 78 79 79 80 82 83 85 86 87 88 88 89 90 91 92 93 93 93 94 95 96 97 98 99 100 101 102 103 105 107 109 110 111 112 112 111 110 109 109 109 110 110 110 110 110 111 111 112 111 110 110 110 110 110 109 109 108 107 108 108 110 110 109 107 106 105 104 104 104 103
75 74 74 74 74 75 76 77 78 80 81 82 83 84 85 86 87 88 89 90 91 91 91 91 92 93 94 96 97 98 99 100 101 103 104 105 107 109 110 110 110 110 111 111 112 112 112 112 112 113 113 113 113 112 112 112 112 112 111 110 110 109 109 109 109 109 108 107 106 106 106 106 106 106
70 70 71 70 70 70 71 72 73 74 75 76 77 78 80 81 82 84 85 86 87 88 88 87 87 87 88 90 91 92 93 95 97 98 100 100 101 102 103 104 105 106 108 109 111 112 113 114 114 114 114 114 115 115 114 114 114 113 113 112 112 112 111 110 110 110 110 110 110 110 110 110 109 109
67 67 67 67 66 66 66 67 67 68 69 69 71 72 74 75 76 78 79 80 81 81 81 82 82 82 83 84 85 86 86 88 90 92 94 95 95 96 97 97 98 100 102 104 106 107 109 110 111 112 113 113 114 114 114 114 113 114 113 113 112 112 112 111 111 111 111 111 110 110 109 108 107 106
63 64 64 63 63 63 62 62 62 62 63 63 65 66 68 69 70 70 71 72 73 74 75 76 77 77 78 79 79 79 80 81 83 85 87 87 88 89 91 92 93 95 96 98 99 100 102 103 104 106 107 108 109 110 110 109 109 109 108 108 108 108 107 106 106 105 104 102 100 99 97 96 94 92
60 61 61 60 59 59 58 58 57 57 58 59 60 61 61 62 63 63 64 65 66 67 68 70 71 72 73 73 74 74 74 75 76 78 80 80 81 82 84 85 87 89 90 92 93 93 94 95 96 98 99 100 102 102 102 101 100 99 98 97 97 97 96 94 92 90 88 86 85 83 81 79 79 79
57 57 57 56 55 54 53 53 53 53 54 54 55 56 56 57 57 58 59 60 60 61 62 63 65 66 67 68 69 69 69 70 71 73 74 75 75 76 77 78 80 82 83 84 85 86 86 87 87 88 89 89 89 89 88 88 87 85 83 82 81 81 80 78 76 74 74 73 71 69 68 68 70 70
54 54 52 51 50 49 49 48 48 49 50 52 53 54 54 54 54 53 53 53 53 54 56 58 60 62 64 65 66 66 66 67 68 69 70 71 71 72 72 73 75 76 77 77 77 78 78 77 77 77 77 76 75 74 74 73 72 71 69 69 69 69 68 67 65 65 65 63 61 61 62 63 64 65
51 50 49 48 47 46 45 45 45 47 48 50 52 53 52 51 50 48 48 48 49 50 52 55 57 59 61 62 63 63 64 65 65 66 67 67 67 68 69 69 70 71 71 71 71 71 70 69 68 68 68 67 66 66 66 65 63 63 63 62 62 62 60 60 59 58 58 57 56 57 58 58 59 60
48 48 46 45 43 42 42 42 43 45 48 50 51 50 49 49 49 49 48 47 47 48 49 51 53 55 56 57 58 60 61 61 62 63 63 63 63 63 64 65 66 66 65 65 65 65 64 63 63 63 62 62 61 62 61 59 57 57 58 58 57 56 55 54 53 52 52 52 52 52 52 53 55 56
46 45 43 41 40 40 40 41 43 45 47 47 47 46 46 47 47 46 45 44 44 44 44 45 46 48 49 51 52 54 55 56 57 58 58 58 57 57 58 59 60 60 60 60 60 60 60 59 59 58 57 57 57 57 55 54 52 52 53 52 51 51 50 50 49 48 47 48 48 49 49 51 52 51
43 42 40 39 39 39 40 41 42 42 42 42 41 42 42 42 41 40 40 39 39 39 39 39 39 40 42 43 45 47 48 49 50 51 51 52 52 52 53 53 54 54 54 55 55 55 54 54 53 51 51 52 52 51 49 48 47 48 47 47 47 47 47 46 45 44 44 45 47 48 48 48 48 47
41 40 39 38 38 39 39 38 37 37 36 36 36 36 36 35 35 35 34 35 35 35 35 35 35 36 37 38 39 41 42 43 43 44 45 45 46 46 47 47 47 48 48 49 49 48 48 47 46 46 46 46 46 45 43 42 43 43 43 43 44 44 44 43 42 42 43 45 46 46 46 46 45 45
39 38 37 37 37 37 35 33 32 32 31 31 31 30 30 30 30 30 30 30 31 31 31 31 32 33 33 34 35 36 37 37 38 39 40 40 40 41 41 41 42 42 43 43 43 43 42 41 41 41 41 41 40 40 38 38 40 41 41 40 40 40 40 40 40 41 42 43 43 43 44 44 44 43
37 36 35 34 34 33 31 29 28 28 27 26 25 25 25 26 26 26 26 26 27 27 27 28 29 30 31 31 32 33 33 34 34 35 35 36 36 36 36 37 37 37 37 38 38 37 36 36 36 36 37 36 36 36 36 36 38 39 38 37 36 37 37 38 38 39 40 40 40 41 41 41 41 40
34 33 32 32 30 28 27 26 26 25 24 23 22 22 22 22 23 23 23 23 23 24 25 26 26 27 27 28 29 29 30 30 30 31 31 31 32 32 32 32 32 32 33 33 33 32 32 32 32 33 34 33 33 34 34 35 36 35 34 34 34 34 35 36 36 37 37 37 37 37 37 37 37 38
30 30 30 29 27 25 24 24 23 22 21 21 21 21 21 21 21 21 21 21 22 22 23 24 24 25 25 26 26 26 27 27 27 27 28 28 28 28 28 29 29 29 29 29 29 29 28 29 29 30 31 30 31 31 31 32 32 31 31 32 32 33 33 34 34 34 34 33 33 33 33 34 35 36
27 28 27 25 23 22 22 22 22 21 20 20 20 20 20 20 20 20 20 20 21 22 22 23 23 24 24 24 25 25 26 26 26 26 26 26 26 26 27 27 27 27 26 26 25 25 25 25 26 27 28 28 28 28 28 28 29 29 30 30 30 30 31 31 30 30 30 30 30 30 30 31 33 33
Wind_Direction
243 246 248 245 241 238 235 235 235 233 233 236 239 240 239 239 240 241 240 239 240 241 241 243 246 248 248 246 244 244 245 245 245 246 248 250 251 252 252 253 254 255 256 256 256 257 258 259 260 262 264 266 268 268 267 265 264 264 263 262 260 259 259 259 260 261 262 263 264 265 266 266 266 267
242 244 247 247 245 242 239 237 237 237 236 235 235 238 240 240 240 241 242 242 243 244 244 245 246 248 249 249 247 246 245 246 247 248 249 251 253 254 254 254 254 254 254 254 254 255 256 258 260 261 264 265 267 268 267 265 265 265 264 262 261 259 259 259 260 261 262 263 264 264 265 266 267 269
242 243 245 247 247 245 243 240 239 239 240 238 234 233 236 238 239 240 241 243 244 246 247 248 248 249 249 249 249 248 246 247 247 248 250 252 253 254 255 255 254 253 254 254 254 255 256 258 259 260 262 263 265 266 267 267 266 266 265 263 262 261 260 260 260 261 261 262 263 264 265 266 267 268
243 243 243 245 247 246 245 243 242 240 241 242 239 235 233 234 236 238 240 242 244 246 247 248 249 250 250 251 251 251 250 249 248 248 248 249 251 252 254 255 254 254 254 254 255 255 257 258 259 260 261 262 264 265 267 268 267 266 265 263 262 261 260 260 261 261 262 262 262 264 265 266 267 268
246 245 245 244 246 247 246 245 244 243 242 242 242 239 236 234 234 235 237 239 242 244 246 246 246 247 248 250 251 253 254 254 254 253 251 249 249 250 251 253 254 255 255 256 256 257 258 258 260 261 261 262 263 265 267 267 266 266 265 263 261 260 260 260 261 262 263 263 263 264 265 265 266 268
247 247 247 246 246 246 247 246 245 244 243 243 243 242 241 239 236 235 235 237 239 241 243 245 245 244 244 245 247 249 251 254 256 257 257 256 255 253 252 252 253 254 256 257 258 258 259 259 261 262 262 262 263 263 265 265 266 266 266 264 261 259 259 259 261 262 264 265 266 266 266 266 267 268
249 249 249 248 248 247 247 247 247 246 245 244 244 244 244 243 242 239 237 236 237 238 239 241 243 244 243 243 244 244 246 248 251 254 256 258 259 259 258 256 255 255 255 256 257 258 259 260 261 262 263 263 263 262 262 263 264 265 266 265 262 260 260 260 261 262 264 265 267 268 269 269 269 269
250 250 250 250 250 249 248 248 248 247 247 246 246 246 246 246 246 246 244 241 240 239 238 238 239 241 242 242 243 243 243 245 247 249 251 253 255 257 258 258 258 258 257 257 257 258 259 261 261 262 262 262 262 261 261 261 262 263 264 264 264 263 262 262 262 263 264 266 267 269 270 270 271 271
250 250 251 251 251 251 250 249 248 248 248 247 247 247 247 247 247 248 249 248 246 244 242 240 238 238 239 240 241 241 241 242 244 246 248 250 251 252 253 254 255 256 258 258 259 259 259 260 261 261 261 261 261 261 261 261 262 263 264 264 264 264 264 264 264 265 266 268 270 271 272 273 273 274
251 250 250 251 251 252 252 251 250 249 249 248 248 248 248 248 248 248 249 250 250 249 247 245 243 240 239 240 240 240 240 241 242 244 246 248 249 250 251 251 251 252 253 254 256 258 259 259 260 260 260 259 259 259 260 260 261 261 262 263 264 264 264 264 264 265 266 267 270 273 274 275 276 276
252 252 251 251 251 251 251 252 252 251 251 250 249 249 249 249 249 249 249 249 250 251 250 250 248 246 243 242 242 242 241 241 242 243 244 245 247 248 249 250 251 251 251 251 251 252 254 255 257 257 258 257 257 257 258 258 259 259 260 261 262 263 263 263 263 264 265 267 270 272 274 275 276 277
252 252 252 252 252 251 251 251 251 252 252 252 251 251 250 250 250 249 249 249 249 249 250 251 251 251 249 247 244 244 243 244 244 245 245 246 246 246 247 248 249 250 251 251 251 251 251 252 253 254 254 255 255 254 254 255 256 257 258 259 260 261 262 263 263 265 266 268 270 272 273 274 275 276
253 253 252 252 252 252 252 251 251 251 251 252 252 252 251 251 251 251 250 250 250 249 250 250 251 252 252 252 250 248 246 245 246 246 247 248 249 249 248 248 248 248 249 250 251 251 252 252 253 253 254 254 254 254 255 255 255 256 258 259 260 261 263 264 265 266 267 268 270 271 272 273 274 275
254 253 253 253 253 253 253 252 252 252 251 251 252 252 252 252 252 252 252 251 251 251 251 251 251 251 252 252 252 252 250 249 248 247 247 247 249 250 251 251 251 249 248 248 249 250 251 251 252 253 254 254 254 255 256 256 257 258 259 260 261 262 263 264 265 266 267 268 269 270 271 272 273 274
255 254 254 253 253 254 253 253 252 252 252 252 252 252 252 252 252 252 253 253 252 252 252 252 252 252 252 253 253 253 252 252 251 250 249 248 248 249 250 252 253 253 251 250 250 250 250 251 252 253 254 255 254 254 255 256 257 258 259 260 260 261 261 262 263 265 266 267 269 270 270 271 272 273
255 254 254 254 253 253 254 254 253 253 253 253 253 253 253 253 253 253 253 253 253 253 252 252 252 252 253 253 254 253 253 253 253 253 252 251 250 250 250 251 252 253 253 253 252 252 252 252 252 253 254 255 256 256 256 256 256 257 258 259 260 261 261 262 263 264 265 266 268 268 269 269 270 270
255 254 254 254 254 253 254 254 254 254 254 254 253 253 253 254 254 253 253 253 254 254 253 253 253 253 253 253 254 254 253 253 253 253 254 254 253 253 252 251 252 252 253 253 253 253 254 253 253 253 254 254 255 256 256 257 258 258 259 259 259 260 261 261 262 263 264 265 265 265 266 266 267 267
256 256 255 254 254 253 253 254 254 254 254 254 253 253 253 254 254 254 254 254 254 254 254 254 254 254 254 254 254 255 254 254 253 253 254 254 254 254 254 254 253 253 253 253 252 253 254 254 254 254 254 255 255 255 255 256 258 259 260 260 260 260 260 261 261 262 263 263 264 264 265 265 265 266
259 258 257 256 256 255 254 255 255 255 255 254 254 254 254 254 254 254 255 255 255 255 254 254 254 254 254 254 254 254 255 254 254 254 254 254 254 254 254 254 255 255 255 255 254 254 254 255 254 254 254 255 255 255 255 255 256 258 259 260 261 261 262 261 261 261 261 262 263 264 264 265 265 266
260 259 259 258 258 257 257 256 256 256 256 255 255 255 254 254 254 255 255 255 255 256 256 255 255 254 254 254 254 254 255 255 254 254 254 254 254 254 254 254 254 255 256 256 256 255 255 256 256 256 255 256 256 256 256 256 256 256 258 259 261 262 262 262 262 262 262 262 263 264 264 265 265 266
260 260 260 259 259 260 259 259 258 258 257 257 256 256 255 255 255 255 255 255 255 255 255 256 256 256 255 255 255 255 255 255 255 255 254 254 254 254 254 254 254 255 255 256 256 256 256 256 257 257 257 257 258 257 257 257 257 258 258 259 260 260 261 262 262 262 262 263 263 264 265 266 266 267
258 259 259 259 260 260 260 260 260 259 258 258 257 257 256 256 255 255 255 254 254 254 254 255 255 256 256 256 256 255 255 255 256 256 256 255 255 254 254 254 255 255 256 257 257 256 256 257 257 258 258 258 258 259 259 259 259 259 260 260 260 261 262 262 262 262 262 262 262 263 264 265 265 266
256 257 258 259 259 260 260 260 260 259 259 259 258 257 257 256 256 256 255 255 254 254 254 254 254 255 255 256 256 256 256 256 256 256 256 256 256 256 256 255 255 256 256 257 257 257 257 258 258 259 259 259 259 260 260 260 260 260 260 260 261 262 263 263 263 263 262 262 262 262 263 263 264 264
256 256 257 258 258 258 258 259 259 260 260 259 259 259 258 257 257 256 256 256 255 254 254 254 254 254 254 255 255 256 256 257 257 256 256 256 256 257 257 257 257 256 257 257 258 258 258 258 259 259 260 260 260 260 261 261 261 261 261 261 261 262 263 264 264 264 264 264 263 263 263 263 264 265
256 256 255 256 257 258 258 258 259 259 259 259 260 259 259 258 258 257 257 257 256 256 255 255 255 254 254 254 254 255 255 256 256 257 257 257 257 256 257 257 258 258 258 258 258 259 258 259 259 260 260 261 261 261 261 261 261 262 262 262 262 262 263 264 264 264 265 265 265 265 265 264 265 265
257 257 256 256 257 257 258 258 259 259 260 260 260 260 260 260 259 258 258 257 257 257 257 256 256 256 255 255 255 255 255 255 255 256 257 257 257 257 257 257 257 258 258 259 259 260 260 260 260 260 261 261 262 262 262 262 262 262 262 262 263 263 263 264 265 265 265 265 265 265 265 265 265 266
259 259 259 258 258 259 259 260 260 260 261 261 261 260 261 261 261 260 260 259 258 258 257 257 257 257 257 256 256 256 255 255 255 255 255 256 257 257 258 258 258 258 258 259 260 260 261 261 261 261 261 261 262 262 263 263 263 263 263 263 263 263 264 265 265 266 266 266 266 266 267 267 267 267
262 261 261 261 261 261 261 261 261 261 261 261 261 262 262 261 261 261 261 261 260 260 259 258 257 257 257 257 257 257 257 256 256 256 256 256 256 257 257 258 258 259 259 259 260 260 260 261 261 262 262 262 262 263 264 264 264 264 264 264 265 265 265 265 266 266 267 267 268 268 268 268 269 269
264 264 264 263 263 262 262 262 261 261 262 262 262 262 262 262 262 261 261 261 261 261 260 260 259 258 258 257 257 257 257 257 257 257 257 257 257 257 257 257 258 258 259 259 260 260 261 261 261 261 262 263 263 264 264 265 265 266 266 266 267 267 267 267 268 268 269 270 270 270 270 270 270 271
265 265 265 265 264 264 264 263 263 263 263 263 263 263 263 262 262 262 261 261 261 262 262 262 261 261 260 259 258 258 258 258 258 258 258 258 258 258 258 258 258 258 258 259 259 260 260 261 262 262 263 263 264 264 265 265 266 266 267 267 268 268 269 269 270 271 272 272 272 272 272 272 272 272
265 266 266 266 266 266 266 266 266 265 265 264 264 263 263 263 262 262 262 263 263 263 263 263 262 262 261 260 260 259 258 258 258 258 258 258 258 259 259 259 259 259 259 259 259 259 260 260 261 262 263 264 264 265 266 266 266 267 267 268 269 270 271 271 272 272 273 273 273 274 273 273 273 272
266 267 267 268 268 268 268 268 268 267 267 266 265 264 264 264 264 264 264 263 263 263 262 262 261 261 261 260 260 260 259 259 258 258 259 258 258 258 259 259 259 260 260 260 260 260 260 260 261 261 262 263 264 265 266 267 267 268 269 270 271 271 272 273 273 273 273 274 274 273 273 272 272 271
267 267 268 268 269 269 270 270 269 269 268 267 266 266 266 265 265 264 263 262 261 260 260 260 260 260 261 261 261 261 260 260 259 259 259 259 259 258 258 258 259 259 260 260 261 261 261 261 262 262 262 263 264 266 267 268 269 270 271 272 272 273 273 273 273 273 273 272 271 270 270 270 269 268
268 268 268 269 270 271 271 271 271 271 270 270 270 269 268 266 264 262 261 260 260 260 260 260 261 261 262 262 262 261 261 260 260 260 260 260 260 259 259 258 259 259 260 260 261 262 263 263 264 265 265 266 267 269 270 271 272 272 272 273 273 272 272 272 272 271 270 269 269 269 268 267 266 265
269 270 270 271 272 272 272 272 272 272 272 272 271 270 269 267 265 263 263 262 262 262 261 260 259 259 259 259 260 260 260 259 259 259 259 259 260 260 260 260 260 261 262 262 263 264 266 267 268 269 270 271 271 272 272 272 272 273 273 273 272 272 271 271 271 270 269 269 269 268 267 265 264 264
270 272 273 273 273 274 274 273 272 271 270 269 268 268 268 269 269 268 267 265 263 261 259 258 258 258 258 258 259 259 259 259 259 259 259 259 260 260 261 261 262 263 264 265 266 268 269 270 271 271 272 272 273 273 272 272 272 273 273 272 272 271 271 270 270 269 269 269 268 266 265 265 264 263
271 272 273 274 275 275 274 272 270 267 265 265 266 268 269 271 271 271 270 268 266 263 262 260 260 259 259 259 259 259 260 260 260 261 261 262 262 262 263 264 264 266 267 268 268 269 270 270 271 271 272 272 272 272 272 272 272 272 272 271 271 270 270 269 268 268 267 267 266 265 265 264 263 262
273 274 275 277 277 276 274 270 267 265 265 266 268 270 270 270 270 271 271 270 269 267 266 264 262 261 261 260 260 260 260 260 261 261 262 263 264 264 264 265 265 266 266 267 268 268 269 269 270 270 271 271 271 271 271 272 272 271 271 270 270 269 267 266 266 265 266 266 266 266 264 264 264 264
276 278 279 280 279 277 273 269 267 267 268 269 269 268 268 268 269 269 269 269 269 268 267 266 265 264 262 261 261 260 260 260 261 261 262 262 263 263 263 264 264 265 265 266 266 267 267 268 269 269 270 270 270 270 271 271 270 269 268 268 267 266 266 266 267 268 268 267 266 266 266 266 266 267
279 280 281 281 279 275 272 270 270 269 268 266 265 264 265 265 266 266 266 266 266 266 266 266 265 264 263 262 261 261 261 261 261 261 262 262 262 262 263 263 263 264 264 265 265 266 267 268 269 269 269 268 269 269 269 268 267 266 265 265 265 266 268 269 269 268 267 266 265 266 266 266 265 265
281 282 282 280 277 274 272 271 269 266 263 262 261 261 261 261 261 262 262 263 263 264 265 265 265 264 264 263 263 262 262 263 262 262 262 262 262 263 263 263 264 264 264 265 266 267 267 267 267 267 266 266 266 266 266 265 264 264 263 264 265 267 267 267 266 264 264 263 264 264 264 264 264 264
283 282 280 277 275 273 272 269 266 263 261 260 259 258 258 258 259 260 261 262 263 264 265 265 265 265 264 264 264 264 264 263 263 263 263 263 263 263 263 263 263 263 264 264 265 265 265 265 265 265 265 265 265 265 264 262 262 263 263 264 263 263 262 261 261 261 261 261 261 262 262 263 264 264
281 280 277 274 273 271 269 265 262 260 260 259 258 258 258 259 260 262 263 264 265 265 265 265 266 266 266 265 265 265 265 264 264 263 263 263 263 263 263 263 264 264 264 265 265 266 266 265 264 264 263 263 262 261 261 260 261 262 262 261 259 258 258 257 257 258 259 259 260 261 262 263 263 263
278 276 273 271 269 266 263 261 260 259 258 258 259 259 260 261 262 264 265 266 266 266 267 267 268 268 268 268 268 268 268 268 267 267 267 267 267 267 266 266 265 265 265 265 265 264 263 262 260 260 260 259 259 259 259 259 260 259 258 257 256 255 255 256 256 257 258 259 260 261 262 262 261 261
273 270 268 266 264 262 261 260 260 259 258 257 257 258 259 260 261 262 263 264 264 265 266 267 267 268 268 268 269 269 269 270 270 270 269 268 267 266 264 263 262 261 261 260 260 259 258 257 257 257 257 257 256 256 256 256 256 255 254 254 254 254 255 256 256 257 259 260 260 261 261 261 261 261
Height
10592 10593 10595 10597 10600 10602 10604 10606 10608 10610 10613 10614 10616 10618 10621 10622 10624 10625 10628 10630 10631 10631 10633 10636 10637 10638 10640 10641 10644 10646 10647 10647 10649 10651 10651 10654 10657 10658 10660 10661 10662 10664 10665 10667 10668 10669 10671 10673 10674 10675 10676 10677 10678 10678 10679 10680 10680 10681 10682 10683 10684 10684 10684 10685 10685 10685 10685 10685 10685 10685 10685 10685 10686 10686
10586 10588 10590 10592 10594 10596 10598 10600 10602 10604 10607 10609 10610 10612 10615 10618 10619 10620 10622 10624 10626 10626 10628 10630 10632 10633 10635 10636 10638 10641 10642 10642 10644 10646 10646 10649 10651 10652 10653 10655 10656 10658 10660 10660 10662 10663 10665 10667 10668 10669 10670 10671 10672 10672 10673 10674 10675 10676 10677 10678 10679 10679 10680 10680 10681 10681 10681 10682 10682 10681 10681 10682 10682 10682
10580 10582 10584 10586 10588 10590 10592 10594 10596 10598 10600 10602 10605 10606 10608 10611 10613 10615 10616 10618 10619 10621 10622 10624 10625 10627 10629 10630 10632 10634 10636 10637 10638 10640 10641 10644 10646 10646 10647 10649 10651 10652 10653 10654 10655 10656 10658 10661 10662 10663 10664 10665 10665 10666 10667 10668 10669 10670 10671 10672 10673 10673 10674 10675 10676 10676 10676 10677 10677 10677 10677 10677 10678 10678
10575 10577 10578 10579 10581 10583 10585 10587 10589 10591 10593 10595 10598 10600 10602 10603 10606 10608 10610 10612 10613 10614 10616 10618 10619 10620 10622 10623 10625 10627 10629 10630 10632 10634 10636 10638 10639 10639 10640 10642 10644 10645 10646 10647 10648 10649 10652 10654 10656 10658 10658 10659 10659 10660 10660 10661 10663 10664 10665 10666 10667 10667 10668 10669 10670 10670 10670 10671 10672 10672 10672 10672 10673 10673
10570 10571 10572 10573 10575 10576 10578 10580 10582 10584 10586 10588 10590 10593 10595 10596 10598 10600 10602 10605 10606 10607 10609 10611 10613 10615 10615 10617 10618 10619 10621 10622 10624 10626 10628 10631 10632 10633 10634 10635 10636 10638 10639 10640 10641 10643 10645 10647 10649 10651 10651 10652 10652 10653 10654 10654 10656 10657 10658 10659 10660 10661 10662 10662 10663 10664 10664 10665 10666 10666 10666 10667 10667 10667
10563 10565 10566 10567 10569 10570 10571 10573 10575 10577 10579 10581 10582 10584 10587 10589 10590 10592 10594 10596 10599 10600 10602 10604 10606 10608 10610 10611 10612 10613 10613 10614 10616 10617 10619 10622 10623 10625 10626 10628 10629 10630 10631 10633 10634 10636 10638 10640 10642 10643 10644 10645 10646 10647 10647 10647 10648 10650 10650 10651 10653 10654 10655 10656 10657 10657 10657 10658 10659 10660 10660 10660 10661 10661
10557 10558 10559 10560 10562 10563 10565 10566 10568 10570 10572 10574 10575 10577 10579 10580 10582 10584 10586 10588 10590 10592 10594 10596 10598 10600 10602 10604 10605 10607 10607 10608 10609 10610 10612 10613 10615 10616 10618 10619 10621 10622 10623 10625 10627 10628 10630 10632 10634 10635 10636 10638 10639 10639 10640 10640 10641 10642 10643 10644 10645 10646 10648 10649 10650 10650 10651 10651 10652 10653 10653 10654 10654 10654
10550 10552 10553 10554 10555 10557 10558 10560 10561 10563 10564 10566 10568 10569 10571 10573 10574 10575 10577 10580 10582 10583 10585 10587 10589 10591 10593 10595 10597 10599 10600 10601 10602 10604 10605 10607 10608 10609 10610 10611 10612 10613 10615 10617 10618 10620 10621 10623 10625 10627 10628 10630 10631 10632 10632 10633 10633 10634 10636 10636 10637 10639 10640 10641 10642 10643 10644 10644 10645 10646 10647 10647 10647 10647
10542 10544 10545 10547 10548 10549 10551 10553 10554 10556 10557 10559 10560 10561 10563 10564 10565 10566 10568 10570 10573 10575 10576 10578 10580 10582 10584 10586 10588 10590 10592 10594 10595 10596 10598 10599 10601 10602 10603 10604 10604 10605 10606 10608 10609 10611 10613 10615 10616 10618 10620 10621 10622 10623 10624 10625 10626 10626 10627 10628 10629 10631 10632 10634 10635 10636 10637 10636 10637 10638 10639 10640 10640 10641
10534 10536 10537 10539 10540 10542 10543 10545 10547 10548 10549 10551 10552 10553 10554 10555 10557 10558 10559 10561 10563 10565 10567 10569 10571 10574 10575 10577 10578 10580 10583 10585 10586 10588 10590 10591 10592 10594 10595 10596 10596 10597 10599 10600 10602 10603 10604 10606 10608 10609 10611 10612 10613 10615 10616 10617 10617 10618 10618 10619 10621 10623 10624 10626 10627 10628 10629 10629 10629 10629 10630 10632 10633 10633
10526 10527 10529 10530 10531 10533 10535 10537 10538 10540 10541 10542 10543 10544 10545 10546 10548 10549 10550 10552 10554 10555 10557 10559 10561 10564 10567 10568 10569 10571 10574 10576 10577 10579 10581 10582 10583 10585 10587 10587 10588 10589 10591 10592 10594 10595 10596 10597 10599 10601 10602 10603 10605 10606 10607 10609 10609 10610 10610 10611 10613 10614 10616 10618 10619 10620 10621 10621 10621 10621 10622 10623 10624 10624
10517 10518 10519 10520 10521 10522 10525 10527 10529 10531 10532 10533 10534 10535 10536 10538 10539 10540 10542 10543 10545 10547 10548 10549 10550 10553 10555 10558 10560 10563 10566 10567 10568 10570 10572 10573 10573 10576 10578 10578 10579 10581 10582 10584 10585 10586 10587 10588 10590 10592 10593 10595 10596 10598 10600 10601 10601 10602 10602 10604 10605 10607 10608 10610 10611 10612 10612 10613 10613 10613 10613 10614 10615 10615
10508 10508 10509 10510 10511 10512 10514 10517 10519 10520 10522 10523 10524 10525 10527 10528 10530 10532 10533 10534 10536 10538 10539 10539 10541 10542 10544 10545 10548 10553 10556 10558 10560 10561 10563 10564 10563 10565 10568 10568 10569 10572 10573 10575 10576 10577 10578 10578 10580 10581 10584 10586 10588 10590 10592 10593 10592 10593 10594 10596 10597 10599 10600 10601 10602 10602 10603 10604 10604 10604 10604 10604 10605 10606
10498 10498 10500 10501 10501 10502 10504 10506 10508 10510 10511 10513 10514 10515 10517 10518 10520 10522 10524 10525 10527 10529 10530 10530 10531 10532 10533 10534 10537 10541 10544 10547 10549 10550 10553 10554 10553 10555 10558 10559 10558 10561 10564 10566 10568 10568 10567 10568 10570 10571 10573 10577 10579 10581 10583 10582 10582 10583 10584 10586 10588 10590 10591 10592 10592 10593 10593 10595 10595 10595 10595 10595 10596 10596
10488 10489 10490 10492 10492 10492 10493 10496 10498 10500 10501 10502 10504 10505 10506 10508 10510 10512 10514 10515 10516 10518 10520 10520 10521 10523 10524 10524 10527 10530 10532 10534 10536 10538 10539 10542 10543 10545 10548 10548 10546 10548 10554 10558 10558 10557 10556 10558 10562 10563 10563 10566 10569 10571 10573 10572 10572 10572 10573 10576 10578 10580 10582 10582 10583 10584 10584 10585 10585 10586 10586 10586 10586 10587
10477 10478 10479 10480 10481 10482 10483 10485 10488 10490 10491 10492 10494 10495 10496 10498 10500 10502 10504 10505 10506 10507 10509 10510 10511 10513 10514 10515 10516 10518 10520 10523 10525 10525 10526 10529 10532 10534 10536 10537 10536 10536 10541 10546 10547 10547 10548 10549 10552 10554 10554 10555 10557 10559 10561 10562 10562 10563 10563 10565 10567 10569 10571 10572 10573 10574 10575 10575 10576 10576 10576 10576 10576 10577
10465 10466 10468 10469 10470 10472 10473 10474 10477 10480 10481 10481 10483 10485 10486 10487 10489 10491 10493 10494 10494 10496 10497 10499 10500 10501 10504 10505 10505 10505 10509 10512 10513 10514 10515 10517 10521 10523 10524 10526 10526 10526 10529 10533 10537 10538 10538 10538 10541 10543 10544 10545 10546 10548 10550 10551 10552 10552 10552 10554 10556 10559 10561 10562 10563 10564 10564 10565 10566 10566 10566 10567 10567 10567
10453 10455 10456 10457 10458 10460 10462 10463 10465 10468 10469 10469 10471 10473 10475 10476 10477 10479 10481 10482 10483 10484 10485 10488 10489 10490 10492 10494 10494 10493 10496 10500 10502 10503 10505 10507 10510 10512 10513 10514 10516 10516 10517 10520 10525 10528 10526 10525 10530 10533 10532 10532 10534 10537 10540 10542 10542 10541 10541 10542 10544 10547 10549 10551 10553 10554 10554 10554 10554 10555 10556 10556 10557 10557
10443 10443 10443 10444 10445 10446 10451 10454 10454 10455 10456 10456 10459 10462 10465 10466 10466 10468 10468 10469 10470 10471 10473 10475 10477 10477 10479 10481 10482 10482 10483 10486 10489 10492 10494 10497 10498 10499 10501 10503 10505 10506 10505 10506 10512 10517 10515 10513 10517 10520 10519 10519 10522 10525 10529 10532 10532 10532 10531 10531 10532 10534 10536 10538 10540 10541 10543 10543 10543 10544 10544 10545 10546 10547
10431 10430 10430 10431 10432 10434 10439 10442 10443 10443 10443 10444 10447 10451 10453 10454 10455 10456 10456 10457 10458 10459 10460 10461 10463 10465 10466 10467 10469 10470 10470 10472 10475 10479 10483 10485 10485 10487 10490 10492 10494 10494 10493 10493 10499 10505 10504 10501 10503 10507 10507 10507 10509 10512 10516 10519 10521 10522 10522 10522 10522 10522 10522 10523 10524 10527 10530 10532 10532 10533 10533 10533 10535 10536
10419 10417 10417 10419 10421 10423 10427 10430 10430 10430 10431 10432 10435 10439 10440 10441 10442 10443 10443 10445 10446 10447 10447 10448 10449 10451 10453 10454 10455 10457 10458 10460 10461 10465 10470 10471 10471 10475 10479 10481 10482 10482 10482 10483 10486 10490 10492 10490 10491 10494 10495 10494 10495 10498 10503 10506 10509 10512 10513 10513 10512 10510 10507 10507 10510 10514 10518 10520 10521 10522 10522 10522 10524 10525
10407 10405 10405 10408 10411 10413 10415 10416 10416 10416 10418 10420 10422 10424 10426 10427 10428 10429 10429 10431 10432 10433 10434 10435 10436 10437 10439 10440 10442 10443 10445 10447 10448 10451 10455 10456 10458 10462 10466 10468 10470 10471 10471 10471 10471 10476 10480 10479 10479 10481 10482 10482 10483 10485 10489 10493 10498 10502 10502 10500 10498 10497 10495 10495 10498 10501 10504 10507 10509 10511 10512 10512 10513 10514
10394 10394 10395 10398 10401 10402 10402 10402 10402 10403 10405 10407 10408 10409 10411 10413 10414 10415 10415 10417 10419 10420 10421 10422 10422 10424 10425 10427 10429 10430 10431 10433 10434 10437 10440 10442 10444 10448 10452 10455 10458 10460 10461 10457 10456 10462 10467 10467 10466 10467 10468 10470 10472 10472 10475 10481 10486 10489 10489 10487 10486 10485 10483 10483 10484 10487 10490 10494 10498 10500 10501 10501 10502 10502
10381 10383 10386 10387 10388 10388 10389 10388 10389 10391 10393 10394 10395 10395 10397 10398 10399 10400 10401 10403 10404 10406 10407 10407 10408 10410 10412 10413 10415 10417 10417 10419 10420 10422 10425 10428 10430 10434 10437 10440 10443 10447 10448 10444 10442 10448 10453 10453 10454 10454 10453 10456 10458 10459 10463 10468 10471 10473 10474 10474 10475 10475 10472 10470 10470 10473 10476 10480 10484 10487 10489 10490 10490 10489
10368 10369 10373 10376 10375 10375 10375 10376 10377 10379 10380 10381 10382 10382 10382 10383 10385 10386 10388 10388 10389 10391 10392 10393 10394 10396 10397 10399 10401 10403 10404 10405 10406 10407 10409 10412 10415 10419 10423 10425 10427 10431 10433 10430 10429 10433 10438 10440 10441 10441 10440 10441 10444 10445 10448 10452 10456 10458 10459 10460 10463 10465 10461 10457 10456 10459 10463 10467 10470 10473 10475 10477 10477 10477
10356 10356 10359 10364 10365 10363 10364 10365 10366 10366 10367 10368 10368 10368 10368 10369 10371 10372 10374 10374 10375 10376 10378 10380 10381 10382 10383 10385 10386 10389 10391 10392 10393 10394 10395 10397 10399 10404 10408 10411 10414 10416 10417 10416 10416 10419 10423 10425 10426 10426 10427 10428 10428 10429 10432 10436 10440 10442 10443 10446 10450 10451 10449 10445 10443 10444 10449 10454 10457 10459 10461 10462 10463 10464
10344 10345 10347 10351 10353 10353 10354 10355 10355 10355 10355 10355 10355 10355 10355 10356 10357 10358 10359 10360 10361 10363 10364 10366 10367 10369 10369 10370 10372 10374 10376 10377 10379 10381 10382 10383 10384 10388 10392 10395 10399 10402 10403 10403 10402 10404 10407 10409 10410 10411 10411 10413 10414 10415 10417 10419 10423 10426 10427 10430 10434 10436 10436 10434 10431 10431 10434 10438 10442 10445 10446 10447 10448 10449
10333 10334 10336 10339 10341 10342 10343 10344 10343 10342 10342 10342 10342 10342 10343 10343 10343 10344 10345 10346 10347 10348 10350 10351 10353 10354 10355 10356 10358 10360 10361 10363 10365 10366 10368 10370 10371 10373 10376 10380 10383 10387 10389 10389 10389 10389 10391 10394 10395 10395 10395 10396 10399 10403 10404 10404 10406 10409 10411 10413 10417 10420 10421 10420 10418 10418 10420 10424 10428 10430 10431 10432 10432 10433
10322 10324 10325 10327 10328 10329 10330 10331 10330 10330 10330 10330 10331 10330 10330 10330 10330 10330 10331 10332 10333 10334 10335 10336 10338 10340 10341 10342 10344 10346 10348 10349 10350 10351 10353 10356 10358 10359 10362 10366 10369 10372 10373 10374 10375 10375 10376 10377 10379 10380 10381 10381 10384 10388 10390 10390 10391 10393 10395 10398 10400 10402 10403 10404 10404 10404 10407 10410 10413 10414 10415 10415 10416 10417
10313 10313 10314 10315 10316 10317 10318 10318 10318 10318 10318 10319 10319 10318 10318 10318 10318 10318 10318 10318 10319 10321 10322 10323 10324 10326 10327 10328 10330 10332 10334 10335 10336 10336 10338 10342 10344 10346 10348 10352 10355 10357 10357 10358 10359 10360 10361 10362 10363 10365 10367 10368 10369 10371 10373 10375 10378 10379 10380 10383 10384 10384 10387 10390 10390 10390 10391 10393 10394 10395 10396 10397 10398 10399
10304 10304 10304 10304 10305 10306 10306 10307 10307 10307 10307 10307 10307 10306 10306 10306 10306 10307 10307 10307 10308 10308 10309 10310 10311 10312 10312 10313 10315 10317 10320 10322 10322 10322 10324 10328 10331 10333 10335 10339 10341 10342 10342 10343 10344 10344 10346 10348 10349 10351 10353 10354 10355 10356 10357 10360 10364 10364 10365 10368 10370 10370 10372 10375 10376 10376 10375 10375 10376 10377 10377 10377 10379 10380
10294 10294 10294 10295 10295 10296 10296 10296 10296 10297 10297 10296 10296 10296 10296 10296 10296 10296 10296 10296 10296 10296 10296 10297 10298 10298 10299 10300 10301 10303 10306 10309 10310 10310 10311 10314 10318 10321 10323 10326 10327 10328 10328 10328 10329 10330 10332 10334 10336 10338 10340 10341 10342 10342 10343 10346 10349 10350 10351 10355 10357 10357 10358 10359 10360 10360 10360 10360 10360 10360 10360 10360 10362 10362
10286 10285 10285 10285 10286 10287 10287 10287 10287 10287 10287 10287 10286 10286 10286 10285 10285 10284 10284 10284 10283 10284 10284 10285 10286 10287 10288 10289 10290 10292 10294 10296 10298 10299 10300 10303 10306 10309 10311 10313 10314 10315 10315 10315 10316 10317 10319 10321 10323 10326 10328 10329 10329 10330 10331 10334 10336 10338 10340 10343 10344 10343 10344 10344 10344 10345 10346 10345 10345 10345 10347 10347 10347 10346
10277 10277 10277 10277 10278 10278 10279 10279 10279 10278 10278 10277 10277 10276 10275 10274 10273 10273 10273 10273 10274 10275 10276 10277 10277 10278 10279 10279 10280 10282 10284 10285 10287 10288 10290 10292 10294 10296 10299 10301 10302 10302 10303 10305 10305 10306 10308 10310 10312 10314 10315 10317 10319 10320 10321 10323 10324 10325 10327 10330 10330 10330 10329 10329 10331 10332 10331 10331 10332 10333 10334 10334 10333 10333
10268 10268 10269 10270 10270 10271 10271 10271 10271 10270 10269 10268 10267 10265 10264 10263 10263 10264 10265 10266 10267 10268 10268 10268 10268 10268 10268 10269 10270 10271 10273 10275 10276 10278 10280 10282 10284 10286 10288 10291 10291 10291 10293 10295 10296 10296 10298 10300 10302 10303 10304 10306 10309 10310 10310 10311 10312 10313 10316 10317 10317 10317 10317 10318 10318 10319 10318 10319 10321 10322 10321 10321 10321 10322
10261 10261 10262 10262 10263 10263 10264 10263 10262 10261 10260 10258 10257 10256 10255 10255 10256 10256 10257 10258 10258 10258 10258 10258 10258 10259 10259 10260 10262 10263 10265 10266 10268 10269 10271 10273 10276 10277 10279 10280 10281 10281 10284 10286 10287 10287 10289 10291 10292 10293 10295 10296 10298 10299 10298 10300 10302 10304 10305 10305 10305 10306 10307 10307 10307 10308 10308 10309 10310 10310 10310 10310 10310 10311
10254 10255 10255 10256 10257 10256 10256 10255 10254 10252 10250 10249 10249 10249 10249 10249 10249 10248 10248 10249 10249 10249 10250 10250 10251 10251 10253 10254 10255 10256 10257 10259 10260 10261 10263 10265 10267 10269 10270 10271 10272 10273 10276 10277 10278 10279 10281 10282 10283 10284 10286 10287 10288 10288 10288 10290 10293 10294 10294 10294 10295 10296 10296 10297 10298 10299 10299 10299 10299 10300 10301 10300 10300 10300
10248 10249 10249 10250 10250 10249 10248 10246 10245 10243 10242 10242 10243 10243 10243 10242 10242 10241 10241 10242 10242 10242 10243 10243 10244 10245 10246 10247 10249 10249 10250 10252 10253 10254 10256 10258 10260 10261 10262 10263 10264 10265 10267 10268 10269 10270 10272 10273 10274 10276 10278 10278 10279 10279 10280 10282 10284 10285 10285 10285 10286 10286 10286 10287 10288 10290 10290 10291 10290 10291 10292 10291 10291 10293
10242 10243 10243 10243 10242 10241 10239 10238 10237 10237 10237 10237 10237 10236 10236 10235 10236 10236 10236 10236 10236 10236 10237 10237 10238 10239 10240 10241 10242 10242 10243 10245 10246 10247 10249 10251 10252 10253 10254 10255 10256 10258 10259 10260 10261 10262 10264 10265 10266 10268 10270 10270 10270 10272 10273 10274 10275 10275 10276 10277 10277 10277 10278 10279 10281 10282 10282 10282 10282 10282 10283 10284 10285 10287
10237 10237 10237 10236 10235 10233 10232 10232 10232 10232 10232 10231 10231 10230 10230 10231 10231 10231 10231 10231 10231 10231 10232 10232 10233 10233 10234 10235 10236 10236 10237 10239 10240 10241 10242 10244 10245 10246 10247 10248 10249 10251 10252 10253 10254 10255 10257 10258 10260 10261 10262 10262 10263 10265 10266 10266 10266 10267 10268 10269 10269 10270 10271 10272 10273 10274 10274 10274 10274 10275 10276 10277 10278 10279
10231 10231 10230 10229 10227 10226 10226 10227 10227 10226 10226 10225 10226 10226 10226 10226 10226 10226 10226 10227 10227 10227 10228 10228 10228 10229 10229 10230 10231 10231 10232 10233 10235 10235 10236 10237 10238 10240 10241 10242 10243 10244 10245 10246 10247 10249 10250 10252 10253 10254 10255 10255 10256 10257 10259 10259 10258 10259 10260 10262 10263 10264 10265 10265 10266 10267 10267 10267 10268 10269 10269 10269 10271 10272
10225 10225 10223 10222 10221 10221 10221 10222 10221 10220 10221 10221 10221 10221 10222 10222 10222 10223 10223 10223 10224 10224 10224 10224 10224 10225 10225 10226 10226 10227 10227 10228 10229 10230 10231 10232 10233 10234 10235 10236 10237 10239 10240 10241 10242 10243 10244 10246 10247 10247 10248 10249 10250 10250 10251 10252 10252 10252 10254 10256 10257 10258 10258 10259 10260 10260 10261 10261 10262 10263 10263 10264 10265 10267
10220 10219 10218 10217 10217 10217 10217 10216 10216 10216 10216 10217 10217 10217 10218 10218 10219 10219 10219 10220 10220 10221 10221 10221 10221 10221 10222 10222 10222 10223 10223 10224 10225 10225 10226 10227 10228 10229 10230 10231 10232 10234 10235 10235 10236 10237 10239 10240 10241 10241 10242 10243 10244 10245 10245 10246 10246 10247 10249 10250 10251 10252 10252 10253 10254 10254 10255 10256 10257 10257 10258 10259 10260 10261
10215 10213 10213 10213 10213 10213 10213 10212 10212 10212 10213 10213 10214 10214 10215 10215 10216 10216 10217 10217 10217 10217 10218 10218 10218 10218 10218 10219 10219 10219 10219 10220 10221 10221 10222 10223 10224 10225 10226 10227 10228 10229 10229 10230 10231 10232 10234 10235 10236 10236 10237 10238 10239 10240 10241 10241 10242 10243 10244 10244 10245 10246 10247 10248 10249 10249 10250 10251 10252 10253 10253 10254 10254 10255
10210 10209 10209 10209 10209 10209 10209 10208 10209 10209 10209 10210 10211 10211 10212 10213 10213 10214 10214 10215 10215 10215 10215 10215 10215 10215 10215 10216 10216 10216 10216 10217 10217 10218 10219 10219 10220 10221 10221 10222 10223 10224 10225 10226 10227 10228 10229 10230 10231 10232 10232 10233 10234 10235 10236 10237 10237 10238 10238 10239 10240 10241 10242 10243 10244 10245 10246 10247 10248 10248 10248 10249 10249 10249